QPF
0.00 0.00 0.00 0.00 0.00 0.00 0.00 0.00 0.00 0.00 0.00 0.00 0.00 0.00 0.00 0.00 0.00 0.00 0.00 0.00 0.00 0.00
0.00 0.00 0.00 0.00 0.00 0.00 0.00 0.00 0.00 0.00 0.00 0.00 0.00 0.00 0.00 0.00 0.00 0.00 0.00 0.00 0.00 0.00
0.00 0.00 0.00 0.00 0.00 0.00 0.00 0.00 0.00 0.00 0.00 0.00 0.00 0.00 0.00 0.00 0.00 0.00 0.00 0.00 0.00 0.00
0.00 0.00 0.00 0.00 0.00 0.00 0.00 0.00 0.00 0.00 0.00 0.00 0.00 0.00 0.00 0.00 0.00 0.00 0.00 0.00 0.00 0.00
0.00 0.00 0.00 0.00 0.00 0.00 0.00 0.00 0.00 0.00 0.00 0.00 0.00 0.00 0.00 0.00 0.00 0.00 0.00 0.00 0.00 0.00
0.00 0.00 0.00 0.00 0.00 0.00 0.00 0.00 0.00 0.00 0.00 0.00 0.00 0.00 0.00 0.00 0.00 0.00 0.00 0.00 0.00 0.00
0.00 0.00 0.00 0.00 0.00 0.00 0.00 0.00 0.00 0.00 0.00 0.00 0.00 0.00 0.00 0.00 0.00 0.00 0.00 0.00 0.00 0.00
0.00 0.00 0.00 0.00 0.00 0.00 0.00 0.00 0.00 0.00 0.00 0.00 0.00 0.00 0.00 0.00 0.00 0.00 0.00 0.00 0.00 0.00
0.00 0.00 0.00 0.00 0.00 0.00 0.00 0.00 0.00 0.00 0.00 0.00 0.00 0.00 0.00 0.00 0.00 0.00 0.00 0.00 0.00 0.00
0.00 0.00 0.00 0.00 0.00 0.00 0.00 0.00 0.00 0.00 0.00 0.00 0.00 0.00 0.00 0.00 0.00 0.00 0.00 0.00 0.00 0.00
0.00 0.00 0.00 0.00 0.00 0.00 0.00 0.00 0.00 0.00 0.00 0.00 0.00 0.00 0.00 0.00 0.00 0.00 0.00 0.00 0.01 0.00
0.00 0.00 0.00 0.00 0.00 0.00 0.00 0.00 0.00 0.00 0.00 0.00 0.00 0.00 0.00 0.00 0.01 0.01 0.01 0.01 0.00 0.00
0.00 0.00 0.00 0.00 0.00 0.00 0.00 0.00 0.00 0.00 0.00 0.00 0.00 0.00 0.00 0.01 0.02 0.01 0.01 0.00 0.00 0.00
0.00 0.00 0.00 0.00 0.00 0.00 0.00 0.00 0.00 0.00 0.00 0.00 0.00 0.00 0.00 0.00 0.00 0.01 0.00 0.00 0.00 0.00
MSLP
1028.56 1028.61 1028.44 1028.30 1028.23 1028.03 1027.73 1027.41 1027.10 1026.94 1026.82 1026.67 1026.43 1026.30 1026.13 1026.11 1025.98 1025.83 1025.83 1025.73 1025.69 1025.55
1028.98 1028.99 1028.91 1028.77 1028.48 1028.24 1028.02 1027.59 1027.32 1027.13 1026.86 1026.51 1026.20 1025.94 1025.76 1025.74 1025.47 1025.31 1025.32 1025.22 1024.99 1024.90
1029.50 1029.46 1029.47 1029.23 1029.09 1028.86 1028.64 1028.34 1028.01 1027.64 1027.25 1026.83 1026.41 1025.97 1025.56 1025.36 1024.95 1024.87 1024.76 1024.63 1024.44 1024.25
1030.12 1030.05 1029.95 1029.83 1029.56 1029.41 1029.22 1028.94 1028.64 1028.16 1027.73 1027.20 1026.66 1026.18 1025.84 1025.45 1025.03 1024.67 1024.37 1024.13 1023.88 1023.60
1030.45 1030.49 1030.44 1030.33 1030.08 1029.88 1029.67 1029.35 1029.02 1028.63 1028.17 1027.67 1027.23 1026.74 1026.38 1025.96 1025.57 1025.12 1024.85 1024.52 1023.85 1023.20
1030.44 1030.58 1030.59 1030.48 1030.30 1030.06 1029.88 1029.62 1029.33 1028.94 1028.64 1028.29 1027.87 1027.32 1026.88 1026.50 1026.38 1026.09 1025.80 1025.31 1024.87 1024.26
1030.50 1030.50 1030.52 1030.44 1030.36 1030.21 1029.85 1029.60 1029.25 1028.94 1028.68 1028.41 1027.87 1027.55 1027.05 1027.24 1026.92 1026.48 1026.07 1025.69 1025.25 1024.77
1030.51 1030.47 1030.49 1030.49 1030.39 1030.11 1029.86 1029.55 1029.33 1028.99 1028.63 1028.26 1027.73 1027.06 1027.25 1026.94 1026.50 1026.11 1025.58 1025.17 1024.78 1024.38
1030.40 1030.49 1030.52 1030.46 1030.33 1030.18 1029.90 1029.63 1029.33 1028.93 1028.49 1028.01 1027.36 1026.98 1026.67 1026.39 1026.03 1025.70 1025.15 1024.58 1024.12 1023.74
1030.42 1030.57 1030.60 1030.48 1030.29 1030.04 1029.73 1029.43 1029.09 1028.67 1028.33 1027.74 1027.05 1026.67 1026.55 1026.27 1025.79 1025.15 1024.59 1024.19 1023.65 1023.08
1030.48 1030.56 1030.48 1030.30 1029.98 1029.75 1029.55 1029.25 1028.92 1028.55 1027.98 1027.28 1026.85 1026.67 1026.38 1025.90 1025.34 1025.06 1024.66 1023.99 1023.34 1022.67
1030.63 1030.56 1030.38 1030.04 1029.79 1029.51 1029.24 1029.07 1028.72 1028.11 1027.68 1027.13 1026.97 1026.51 1026.28 1025.92 1025.37 1025.15 1024.61 1023.86 1023.14 1022.64
1030.63 1030.45 1030.07 1029.75 1029.43 1029.18 1029.07 1028.67 1028.33 1027.86 1027.55 1027.25 1026.75 1026.31 1026.12 1025.77 1025.39 1024.79 1024.28 1023.70 1022.82 1022.11
1030.47 1030.13 1029.74 1029.40 1029.19 1029.07 1028.69 1028.43 1028.06 1027.74 1027.48 1027.10 1026.72 1026.26 1025.88 1025.53 1025.28 1024.89 1024.45 1023.66 1022.65 1021.86
Thickness
5548 5543 5540 5538 5534 5532 5531 5531 5528 5527 5525 5524 5524 5525 5525 5524 5524 5524 5524 5524 5522 5522
5534 5529 5525 5523 5520 5517 5515 5515 5515 5514 5514 5513 5513 5512 5512 5511 5512 5512 5512 5512 5514 5513
5521 5515 5510 5508 5505 5503 5500 5497 5497 5496 5495 5496 5496 5497 5499 5500 5499 5498 5499 5500 5500 5501
5505 5500 5496 5492 5490 5487 5485 5482 5480 5480 5479 5479 5479 5480 5481 5483 5484 5484 5485 5486 5487 5489
5492 5486 5482 5477 5475 5472 5470 5468 5465 5464 5463 5462 5461 5462 5461 5461 5461 5463 5467 5467 5468 5472
5481 5474 5468 5465 5461 5458 5455 5452 5449 5447 5445 5443 5441 5441 5440 5438 5439 5438 5438 5440 5441 5443
5467 5463 5457 5452 5447 5444 5441 5438 5436 5432 5429 5425 5424 5422 5420 5418 5417 5417 5418 5418 5418 5420
5455 5450 5444 5439 5434 5430 5427 5424 5419 5416 5413 5410 5408 5407 5403 5400 5400 5400 5401 5402 5401 5399
5444 5437 5431 5425 5420 5416 5412 5407 5403 5400 5397 5395 5392 5390 5387 5385 5385 5381 5381 5381 5379 5378
5430 5423 5415 5410 5405 5401 5397 5393 5389 5385 5381 5378 5374 5370 5365 5362 5359 5360 5359 5355 5354 5353
5416 5408 5402 5397 5393 5388 5382 5377 5372 5366 5362 5358 5352 5345 5337 5334 5331 5329 5325 5323 5320 5320
5400 5393 5387 5382 5377 5372 5366 5358 5352 5347 5340 5333 5323 5314 5305 5296 5293 5285 5280 5278 5273 5269
5384 5377 5373 5367 5361 5354 5345 5338 5330 5323 5313 5302 5292 5279 5266 5253 5243 5239 5236 5233 5233 5232
5369 5362 5356 5350 5341 5331 5323 5314 5303 5294 5283 5270 5253 5240 5227 5217 5207 5202 5200 5203 5208 5209